DAL2668 KATL-KMSP

Flight info

Callsign DAL2668
Flight time 2h 20m
Altitude 30000
Route PENCL2 EMAHH CEASE IOW MNOSO BLUEM5
Aircraft A321/M-SDE3FGHIRWY/LB1

Departure

Time 2026-05-05 11:34
Airport Hartsfield Jackson Atlanta International Airport (KATL)

Arrival

Time 2026-05-05 13:55
Airport Minneapolis–Saint Paul International Airport / Wold–Chamberlain Field (KMSP)
Time Latitude Longitude Altitude Speed Heading
2026-05-05 10:56 33.64282 -84.42999 1036 ft 0 kts 89°
2026-05-05 11:25 33.64281 -84.43024 1035 ft 4 kts 78°
2026-05-05 11:25 33.64272 -84.43052 1035 ft 4 kts 47°
2026-05-05 11:26 33.64252 -84.43066 1035 ft 2 kts
2026-05-05 11:26 33.64246 -84.43066 1035 ft 0 kts 359°
2026-05-05 11:28 33.64247 -84.43066 1035 ft 1 kts 359°
2026-05-05 11:28 33.64289 -84.43066 1035 ft 11 kts 360°
2026-05-05 11:28 33.64384 -84.43067 1035 ft 14 kts 360°
2026-05-05 11:28 33.64456 -84.43021 1036 ft 12 kts 67°
2026-05-05 11:29 33.64459 -84.42927 1035 ft 12 kts 90°
2026-05-05 11:29 33.64466 -84.42805 1035 ft 16 kts 63°
2026-05-05 11:29 33.64541 -84.42718 1035 ft 15 kts 65°
2026-05-05 11:29 33.64543 -84.42599 1035 ft 13 kts 91°
2026-05-05 11:30 33.64542 -84.42486 1035 ft 15 kts 90°
2026-05-05 11:30 33.64543 -84.42332 1035 ft 20 kts 89°
2026-05-05 11:30 33.64543 -84.42172 1035 ft 19 kts 90°
2026-05-05 11:30 33.64543 -84.42022 1035 ft 17 kts 90°
2026-05-05 11:31 33.64543 -84.41882 1035 ft 16 kts 90°
2026-05-05 11:31 33.64543 -84.41753 1036 ft 15 kts 90°
2026-05-05 11:31 33.64543 -84.41635 1036 ft 13 kts 90°
2026-05-05 11:31 33.64543 -84.41521 1036 ft 16 kts 90°
2026-05-05 11:32 33.64542 -84.41353 1036 ft 23 kts 90°
2026-05-05 11:32 33.64543 -84.41169 1036 ft 22 kts 89°
2026-05-05 11:32 33.64544 -84.40993 1035 ft 21 kts 89°
2026-05-05 11:32 33.64551 -84.40824 1035 ft 20 kts 72°
2026-05-05 11:33 33.64571 -84.40674 1034 ft 18 kts 90°
2026-05-05 11:33 33.64624 -84.40576 1033 ft 15 kts
2026-05-05 11:33 33.64677 -84.40590 1033 ft 4 kts 284°
2026-05-05 11:33 33.64677 -84.40634 1033 ft 13 kts 271°
2026-05-05 11:34 33.64679 -84.41061 1036 ft 87 kts 270°
2026-05-05 11:34 33.64679 -84.42035 1035 ft 144 kts 270°
2026-05-05 11:34 33.64677 -84.43409 1180 ft 175 kts 269°
2026-05-05 11:34 33.64679 -84.44840 1927 ft 170 kts 268°
2026-05-05 11:35 33.64686 -84.46238 2676 ft 166 kts 266°
2026-05-05 11:35 33.64770 -84.47618 3251 ft 170 kts 276°
2026-05-05 11:35 33.65154 -84.49016 3593 ft 183 kts 291°
2026-05-05 11:35 33.65765 -84.50408 3926 ft 195 kts 295°
2026-05-05 11:36 33.66458 -84.51859 4282 ft 205 kts 296°
2026-05-05 11:36 33.67178 -84.53370 4674 ft 211 kts 296°
2026-05-05 11:36 33.67902 -84.54925 5109 ft 215 kts 295°
2026-05-05 11:36 33.68702 -84.56492 5364 ft 231 kts 307°
2026-05-05 11:37 33.70033 -84.57733 5565 ft 257 kts 333°
2026-05-05 11:37 33.71837 -84.58262 5937 ft 277 kts 356°
2026-05-05 11:37 33.73783 -84.58282 6627 ft 283 kts 359°
2026-05-05 11:37 33.75767 -84.58243 7321 ft 287 kts 360°
2026-05-05 11:38 33.77771 -84.58186 8049 ft 290 kts 360°
2026-05-05 11:38 33.79794 -84.58130 8780 ft 292 kts 359°
2026-05-05 11:38 33.81840 -84.58086 9521 ft 295 kts 358°
2026-05-05 11:38 33.83905 -84.58088 10219 ft 298 kts 355°
2026-05-05 11:39 33.85968 -84.58475 10573 ft 309 kts 342°
2026-05-05 11:39 33.88117 -84.59173 10721 ft 331 kts 342°
2026-05-05 11:39 33.90411 -84.59930 10861 ft 352 kts 342°
2026-05-05 11:39 33.92803 -84.60721 11316 ft 360 kts 342°
2026-05-05 11:40 33.95235 -84.61520 11962 ft 364 kts 342°
2026-05-05 11:40 33.97693 -84.62320 12613 ft 367 kts 343°
2026-05-05 11:40 34.00169 -84.63118 13261 ft 370 kts 343°
2026-05-05 11:40 34.02673 -84.63922 13908 ft 374 kts 343°
2026-05-05 11:41 34.05191 -84.64729 14485 ft 376 kts 343°
2026-05-05 11:41 34.07723 -84.65545 15086 ft 378 kts 342°
2026-05-05 11:41 34.10267 -84.66367 15692 ft 379 kts 342°
2026-05-05 11:41 34.12812 -84.67193 16327 ft 379 kts 342°
2026-05-05 11:42 34.15368 -84.68025 16918 ft 381 kts 342°
2026-05-05 11:42 34.17065 -84.68576 17312 ft 382 kts 342°
2026-05-05 11:42 34.19636 -84.69412 17878 ft 383 kts 341°
2026-05-05 11:42 34.22217 -84.70252 18419 ft 385 kts 341°
2026-05-05 11:43 34.24813 -84.71099 18885 ft 387 kts 341°
2026-05-05 11:43 34.27400 -84.72011 19350 ft 388 kts 339°
2026-05-05 11:43 34.29967 -84.73039 19812 ft 389 kts 337°
2026-05-05 11:43 34.32520 -84.74140 20282 ft 390 kts 336°
2026-05-05 11:44 34.35076 -84.75274 20748 ft 392 kts 336°
2026-05-05 11:44 34.37640 -84.76411 21211 ft 394 kts 336°
2026-05-05 11:44 34.40225 -84.77541 21675 ft 396 kts 336°
2026-05-05 11:44 34.42828 -84.78661 22120 ft 398 kts 337°
2026-05-05 11:45 34.45447 -84.79772 22580 ft 400 kts 337°
2026-05-05 11:45 34.48081 -84.80884 23020 ft 402 kts 337°
2026-05-05 11:45 34.50729 -84.82002 23460 ft 404 kts 337°
2026-05-05 11:45 34.53391 -84.83129 23835 ft 406 kts 336°
2026-05-05 11:46 34.56060 -84.84257 24225 ft 407 kts 336°
2026-05-05 11:46 34.58733 -84.85387 24631 ft 407 kts 336°
2026-05-05 11:46 34.61412 -84.86527 25028 ft 408 kts 336°
2026-05-05 11:46 34.64085 -84.87666 25423 ft 409 kts 336°
2026-05-05 11:47 34.66778 -84.88815 25747 ft 411 kts 336°
2026-05-05 11:47 34.69479 -84.89965 26118 ft 412 kts 336°
2026-05-05 11:47 34.72188 -84.91118 26479 ft 413 kts 336°
2026-05-05 11:47 34.74901 -84.92275 26837 ft 414 kts 336°
2026-05-05 11:48 34.80345 -84.94602 27516 ft 415 kts 336°
2026-05-05 11:48 34.83072 -84.95771 27851 ft 416 kts 336°
2026-05-05 11:48 34.85806 -84.96941 28179 ft 417 kts 336°
2026-05-05 11:49 34.88545 -84.98114 28497 ft 418 kts 336°
2026-05-05 11:49 34.91291 -84.99291 28792 ft 419 kts 336°
2026-05-05 11:49 34.94049 -85.00472 29091 ft 421 kts 336°
2026-05-05 11:49 34.96816 -85.01657 29396 ft 422 kts 336°
2026-05-05 11:50 34.99578 -85.02843 29819 ft 420 kts 336°
2026-05-05 11:50 35.02325 -85.04024 30245 ft 417 kts 336°
2026-05-05 11:50 35.05046 -85.05197 30682 ft 411 kts 335°
2026-05-05 11:50 35.07720 -85.06348 31226 ft 404 kts 335°
2026-05-05 11:51 35.10345 -85.07495 31777 ft 396 kts 332°
2026-05-05 11:51 35.12756 -85.08986 32327 ft 383 kts 323°
2026-05-05 11:51 35.14953 -85.10757 32920 ft 375 kts 323°
2026-05-05 11:51 35.17107 -85.12500 33458 ft 368 kts 322°
2026-05-05 11:52 35.19226 -85.14212 34000 ft 362 kts 322°
2026-05-05 11:52 35.21307 -85.15895 34461 ft 356 kts 322°
2026-05-05 11:52 35.23357 -85.17558 34861 ft 351 kts 322°
2026-05-05 11:52 35.25385 -85.19202 35218 ft 348 kts 322°
2026-05-05 11:53 35.27394 -85.20829 35530 ft 345 kts 322°
2026-05-05 11:53 35.29389 -85.22445 35837 ft 343 kts 322°
2026-05-05 11:53 35.31375 -85.24060 35962 ft 343 kts 322°
2026-05-05 11:53 35.33370 -85.25688 35988 ft 347 kts 322°
2026-05-05 11:54 35.37401 -85.28972 35991 ft 349 kts 323°
2026-05-05 11:54 35.41447 -85.32262 36016 ft 349 kts 322°
2026-05-05 11:55 35.45486 -85.35551 35989 ft 348 kts 322°
2026-05-05 11:55 35.49511 -85.38832 35989 ft 348 kts 322°
2026-05-05 11:56 35.53544 -85.42120 35989 ft 348 kts 322°
2026-05-05 11:56 35.57579 -85.45418 35985 ft 348 kts 322°
2026-05-05 11:57 35.61611 -85.48722 35990 ft 349 kts 322°
2026-05-05 11:57 35.65647 -85.52034 35994 ft 349 kts 322°
2026-05-05 11:58 35.69687 -85.55340 36030 ft 348 kts 322°
2026-05-05 11:58 35.73715 -85.58654 36025 ft 348 kts 321°
2026-05-05 11:59 35.77730 -85.61963 36015 ft 347 kts 321°
2026-05-05 11:59 35.81746 -85.65267 36013 ft 347 kts 322°
2026-05-05 12:00 35.85767 -85.68576 36007 ft 347 kts 321°
2026-05-05 12:00 35.89777 -85.71889 36009 ft 347 kts 321°
2026-05-05 12:01 35.93787 -85.75208 36010 ft 347 kts 321°
2026-05-05 12:01 35.97798 -85.78534 36011 ft 347 kts 321°
2026-05-05 12:02 36.01803 -85.81858 36005 ft 347 kts 321°
2026-05-05 12:02 36.05812 -85.85177 35999 ft 347 kts 321°
2026-05-05 12:03 36.09705 -85.88675 35993 ft 345 kts 319°
2026-05-05 12:03 36.13479 -85.92338 35988 ft 345 kts 318°
2026-05-05 12:04 36.17246 -85.96008 35987 ft 345 kts 318°
2026-05-05 12:04 36.21031 -85.99658 36005 ft 344 kts 318°
2026-05-05 12:05 36.24813 -86.03293 35986 ft 344 kts 318°
2026-05-05 12:05 36.28600 -86.06919 35985 ft 344 kts 318°
2026-05-05 12:06 36.32377 -86.10554 35975 ft 344 kts 318°
2026-05-05 12:06 36.36157 -86.14198 35973 ft 344 kts 318°
2026-05-05 12:07 36.39938 -86.17848 35958 ft 344 kts 318°
2026-05-05 12:07 36.43723 -86.21504 35952 ft 345 kts 317°
2026-05-05 12:08 36.47512 -86.25172 36007 ft 345 kts 317°
2026-05-05 12:08 36.51301 -86.28840 36001 ft 345 kts 317°
2026-05-05 12:09 36.55083 -86.32516 35994 ft 345 kts 317°
2026-05-05 12:09 36.58860 -86.36191 35965 ft 345 kts 317°
2026-05-05 12:10 36.62642 -86.39868 35957 ft 345 kts 317°
2026-05-05 12:10 36.66425 -86.43544 35957 ft 345 kts 317°
2026-05-05 12:11 36.70205 -86.47238 35983 ft 345 kts 316°
2026-05-05 12:11 36.73976 -86.50928 35973 ft 344 kts 317°
2026-05-05 12:12 36.77745 -86.54605 35969 ft 344 kts 317°
2026-05-05 12:12 36.81516 -86.58283 35957 ft 344 kts 316°
2026-05-05 12:13 36.85275 -86.61971 35950 ft 344 kts 316°
2026-05-05 12:13 36.89039 -86.65673 35946 ft 344 kts 316°
2026-05-05 12:14 36.92808 -86.69376 35937 ft 344 kts 316°
2026-05-05 12:14 36.96548 -86.73054 35950 ft 344 kts 316°
2026-05-05 12:15 37.00314 -86.76764 35943 ft 344 kts 316°
2026-05-05 12:15 37.04099 -86.80501 35930 ft 344 kts 316°
2026-05-05 12:16 37.07837 -86.84186 35921 ft 344 kts 316°
2026-05-05 12:16 37.11599 -86.87901 35917 ft 344 kts 316°
2026-05-05 12:17 37.15359 -86.91622 35911 ft 344 kts 316°
2026-05-05 12:17 37.19117 -86.95346 35907 ft 344 kts 315°
2026-05-05 12:18 37.22878 -86.99082 35926 ft 345 kts 315°
2026-05-05 12:18 37.26633 -87.02819 35920 ft 345 kts 315°
2026-05-05 12:19 37.30391 -87.06559 35910 ft 344 kts 315°
2026-05-05 12:19 37.34142 -87.10303 35903 ft 345 kts 315°
2026-05-05 12:20 37.37897 -87.14050 35901 ft 345 kts 315°
2026-05-05 12:20 37.41677 -87.17825 35901 ft 345 kts 315°
2026-05-05 12:21 37.45406 -87.21555 35925 ft 345 kts 314°
2026-05-05 12:21 37.49159 -87.25316 35908 ft 345 kts 314°
2026-05-05 12:22 37.52914 -87.29079 35895 ft 345 kts 314°
2026-05-05 12:22 37.56672 -87.32848 35896 ft 345 kts 314°
2026-05-05 12:23 37.59819 -87.36019 35880 ft 346 kts 313°
2026-05-05 12:23 37.63578 -87.39815 35882 ft 347 kts 314°
2026-05-05 12:24 37.67348 -87.43613 35886 ft 347 kts 314°
2026-05-05 12:24 37.71122 -87.47421 35908 ft 347 kts 313°
2026-05-05 12:25 37.74897 -87.51236 35908 ft 348 kts 313°
2026-05-05 12:25 37.78670 -87.55057 35908 ft 348 kts 313°
2026-05-05 12:26 37.82444 -87.58884 35910 ft 348 kts 313°
2026-05-05 12:26 37.86220 -87.62711 35908 ft 348 kts 313°
2026-05-05 12:27 37.89991 -87.66544 35905 ft 348 kts 313°
2026-05-05 12:27 37.93759 -87.70382 35920 ft 348 kts 313°
2026-05-05 12:28 37.97538 -87.74231 35877 ft 349 kts 312°
2026-05-05 12:28 38.01328 -87.78105 35869 ft 350 kts 312°
2026-05-05 12:29 38.05129 -87.81994 35863 ft 351 kts 312°
2026-05-05 12:29 38.08936 -87.85889 35863 ft 352 kts 312°
2026-05-05 12:30 38.12739 -87.89788 35860 ft 352 kts 312°
2026-05-05 12:30 38.16549 -87.93705 35858 ft 352 kts 312°
2026-05-05 12:31 38.20339 -87.97597 35870 ft 353 kts 312°
2026-05-05 12:31 38.24185 -88.01550 35856 ft 354 kts 312°
2026-05-05 12:32 38.27985 -88.05464 35860 ft 354 kts 312°
2026-05-05 12:32 38.31814 -88.09415 35831 ft 354 kts 311°
2026-05-05 12:33 38.35647 -88.13388 35826 ft 356 kts 311°
2026-05-05 12:33 38.39498 -88.17373 35823 ft 357 kts 311°
2026-05-05 12:34 38.43369 -88.21373 35842 ft 358 kts 311°
2026-05-05 12:34 38.47232 -88.25384 35845 ft 358 kts 311°
2026-05-05 12:35 38.51092 -88.29401 35847 ft 358 kts 311°
2026-05-05 12:35 38.54956 -88.33421 35870 ft 358 kts 311°
2026-05-05 12:36 38.58816 -88.37442 35875 ft 358 kts 311°
2026-05-05 12:36 38.62674 -88.41479 35876 ft 358 kts 311°
2026-05-05 12:37 38.66529 -88.45512 35887 ft 359 kts 311°
2026-05-05 12:37 38.70397 -88.49561 35830 ft 360 kts 311°
2026-05-05 12:38 38.74285 -88.53638 35830 ft 362 kts 311°
2026-05-05 12:38 38.78191 -88.57736 35821 ft 363 kts 311°
2026-05-05 12:39 38.82106 -88.61851 35826 ft 364 kts 311°
2026-05-05 12:39 38.86019 -88.65972 35830 ft 364 kts 311°
2026-05-05 12:40 38.89937 -88.70107 35866 ft 365 kts 311°
2026-05-05 12:40 38.93836 -88.74226 35854 ft 365 kts 310°
2026-05-05 12:41 38.97790 -88.78408 35846 ft 366 kts 311°
2026-05-05 12:41 39.01727 -88.82573 35838 ft 366 kts 311°
2026-05-05 12:42 39.05660 -88.86746 35828 ft 367 kts 310°
2026-05-05 12:42 39.09578 -88.90909 35820 ft 369 kts 310°
2026-05-05 12:43 39.13539 -88.95124 35848 ft 370 kts 310°
2026-05-05 12:43 39.17515 -88.99364 35840 ft 371 kts 310°
2026-05-05 12:44 39.21499 -89.03608 35837 ft 372 kts 310°
2026-05-05 12:44 39.25489 -89.07868 35838 ft 372 kts 310°
2026-05-05 12:45 39.29477 -89.12143 35839 ft 373 kts 310°
2026-05-05 12:45 39.33465 -89.16420 35849 ft 373 kts 310°
2026-05-05 12:46 39.37462 -89.20708 35875 ft 374 kts 310°
2026-05-05 12:46 39.41467 -89.25015 35899 ft 375 kts 310°
2026-05-05 12:47 39.45468 -89.29332 35910 ft 375 kts 310°
2026-05-05 12:47 39.49476 -89.33661 35913 ft 375 kts 310°
2026-05-05 12:48 39.53474 -89.37992 35916 ft 375 kts 310°
2026-05-05 12:48 39.57483 -89.42329 35916 ft 375 kts 310°
2026-05-05 12:49 39.61500 -89.46675 35910 ft 378 kts 310°
2026-05-05 12:49 39.65542 -89.51057 35875 ft 379 kts 310°
2026-05-05 12:50 39.69588 -89.55450 35873 ft 380 kts 310°
2026-05-05 12:50 39.73646 -89.59868 35876 ft 381 kts 310°
2026-05-05 12:51 39.77710 -89.64297 35876 ft 381 kts 310°
2026-05-05 12:51 39.81774 -89.68739 35910 ft 382 kts 310°
2026-05-05 12:52 39.85850 -89.73215 35883 ft 384 kts 310°
2026-05-05 12:52 39.89948 -89.77706 35875 ft 386 kts 310°
2026-05-05 12:53 39.94059 -89.82215 35868 ft 387 kts 310°
2026-05-05 12:53 39.98174 -89.86735 35869 ft 387 kts 310°
2026-05-05 12:54 40.04356 -89.93539 35901 ft 388 kts 310°
2026-05-05 12:55 40.08474 -89.98100 35890 ft 389 kts 310°
2026-05-05 12:55 40.12598 -90.02671 35902 ft 389 kts 310°
2026-05-05 12:56 40.16724 -90.07239 35901 ft 389 kts 310°
2026-05-05 12:56 40.20852 -90.11813 35899 ft 389 kts 310°
2026-05-05 12:57 40.24978 -90.16390 35903 ft 389 kts 310°
2026-05-05 12:57 40.29094 -90.20980 35919 ft 389 kts 310°
2026-05-05 12:58 40.33219 -90.25579 35913 ft 389 kts 310°
2026-05-05 12:58 40.37346 -90.30190 35917 ft 390 kts 310°
2026-05-05 12:59 40.41475 -90.34801 35927 ft 390 kts 310°
2026-05-05 12:59 40.45605 -90.39423 35938 ft 390 kts 310°
2026-05-05 13:00 40.51790 -90.46383 35973 ft 390 kts 310°
2026-05-05 13:01 40.60050 -90.55684 35973 ft 391 kts 310°
2026-05-05 13:01 40.64187 -90.60347 35970 ft 391 kts 310°
2026-05-05 13:02 40.68315 -90.65023 35952 ft 392 kts 310°
2026-05-05 13:02 40.72443 -90.69705 35948 ft 392 kts 310°
2026-05-05 13:03 40.76547 -90.74364 35940 ft 392 kts 310°
2026-05-05 13:03 40.80681 -90.79056 35943 ft 392 kts 310°
2026-05-05 13:04 40.84819 -90.83763 35932 ft 392 kts 310°
2026-05-05 13:04 40.88279 -90.87713 35929 ft 393 kts 310°
2026-05-05 13:05 40.92406 -90.92429 35929 ft 391 kts 310°
2026-05-05 13:05 40.96504 -90.97117 35930 ft 389 kts 310°
2026-05-05 13:06 41.00588 -91.01807 35921 ft 389 kts 310°
2026-05-05 13:06 41.04680 -91.06498 35919 ft 389 kts 310°
2026-05-05 13:07 41.08772 -91.11196 35931 ft 389 kts 310°
2026-05-05 13:07 41.12856 -91.15909 36000 ft 389 kts 310°
2026-05-05 13:08 41.16910 -91.20595 35937 ft 385 kts 310°
2026-05-05 13:08 41.20953 -91.25268 35941 ft 385 kts 310°
2026-05-05 13:09 41.24993 -91.29950 35944 ft 385 kts 310°
2026-05-05 13:09 41.29011 -91.34611 35943 ft 386 kts 310°
2026-05-05 13:10 41.33051 -91.39305 35938 ft 386 kts 310°
2026-05-05 13:10 41.37120 -91.44041 35960 ft 386 kts 310°
2026-05-05 13:11 41.41130 -91.48718 35951 ft 386 kts 310°
2026-05-05 13:11 41.45168 -91.53431 35941 ft 386 kts 310°
2026-05-05 13:12 41.49195 -91.58151 35959 ft 385 kts 310°
2026-05-05 13:12 41.53235 -91.62860 35960 ft 387 kts 311°
2026-05-05 13:13 41.57430 -91.67399 35970 ft 389 kts 313°
2026-05-05 13:13 41.61676 -91.71869 35956 ft 389 kts 312°
2026-05-05 13:14 41.65898 -91.76383 35947 ft 389 kts 312°
2026-05-05 13:14 41.70100 -91.80932 35930 ft 389 kts 312°
2026-05-05 13:15 41.74300 -91.85494 35934 ft 389 kts 312°
2026-05-05 13:15 41.78508 -91.90066 35951 ft 390 kts 312°
2026-05-05 13:16 41.82724 -91.94649 35939 ft 391 kts 312°
2026-05-05 13:16 41.86951 -91.99250 35936 ft 391 kts 312°
2026-05-05 13:17 41.91171 -92.03857 35928 ft 391 kts 312°
2026-05-05 13:17 41.95397 -92.08478 35927 ft 392 kts 312°
2026-05-05 13:18 41.99630 -92.13103 35954 ft 392 kts 312°
2026-05-05 13:18 42.03863 -92.17746 35944 ft 393 kts 312°
2026-05-05 13:19 42.08095 -92.22399 35937 ft 393 kts 312°
2026-05-05 13:19 42.12331 -92.27058 35934 ft 393 kts 312°
2026-05-05 13:20 42.16567 -92.31720 35937 ft 393 kts 312°
2026-05-05 13:20 42.20797 -92.36388 35947 ft 392 kts 312°
2026-05-05 13:21 42.25015 -92.41064 35932 ft 392 kts 312°
2026-05-05 13:21 42.29236 -92.45745 35929 ft 393 kts 312°
2026-05-05 13:22 42.33462 -92.50441 35939 ft 393 kts 312°
2026-05-05 13:22 42.37721 -92.55110 35939 ft 398 kts 316°
2026-05-05 13:23 42.40156 -92.57001 35964 ft 410 kts 324°
2026-05-05 13:23 42.42737 -92.58648 35958 ft 410 kts 324°
2026-05-05 13:23 42.47904 -92.61959 35949 ft 411 kts 324°
2026-05-05 13:24 42.53061 -92.65281 35944 ft 410 kts 324°
2026-05-05 13:24 42.58215 -92.68611 35499 ft 406 kts 323°
2026-05-05 13:25 42.60751 -92.70238 35295 ft 401 kts 323°
2026-05-05 13:25 42.63267 -92.71860 35049 ft 400 kts 323°
2026-05-05 13:25 42.65776 -92.73485 34804 ft 400 kts 322°
2026-05-05 13:25 42.68283 -92.75115 34562 ft 400 kts 322°
2026-05-05 13:26 42.70796 -92.76750 34323 ft 400 kts 322°
2026-05-05 13:26 42.73309 -92.78390 34090 ft 401 kts 322°
2026-05-05 13:26 42.75823 -92.80030 33836 ft 401 kts 322°
2026-05-05 13:26 42.78342 -92.81669 33564 ft 402 kts 322°
2026-05-05 13:27 42.80870 -92.83320 33294 ft 403 kts 322°
2026-05-05 13:27 42.83395 -92.84980 33024 ft 404 kts 322°
2026-05-05 13:27 42.85926 -92.86650 32755 ft 405 kts 322°
2026-05-05 13:27 42.88462 -92.88329 32489 ft 406 kts 322°
2026-05-05 13:28 42.91008 -92.90014 32225 ft 407 kts 322°
2026-05-05 13:28 42.93561 -92.91699 31963 ft 408 kts 322°
2026-05-05 13:28 42.96123 -92.93391 31706 ft 410 kts 322°
2026-05-05 13:28 42.98691 -92.95088 31493 ft 411 kts 322°
2026-05-05 13:29 43.01262 -92.96788 31238 ft 411 kts 322°
2026-05-05 13:29 43.03833 -92.98494 30984 ft 411 kts 322°
2026-05-05 13:29 43.06410 -93.00212 30751 ft 412 kts 322°
2026-05-05 13:29 43.08990 -93.01933 30499 ft 412 kts 322°
2026-05-05 13:30 43.11567 -93.03648 30254 ft 412 kts 322°
2026-05-05 13:30 43.14134 -93.05356 30010 ft 407 kts 322°
2026-05-05 13:30 43.16654 -93.07021 29731 ft 398 kts 322°
2026-05-05 13:30 43.19129 -93.08659 29499 ft 393 kts 322°
2026-05-05 13:31 43.21577 -93.10291 29214 ft 393 kts 322°
2026-05-05 13:31 43.24041 -93.11952 28944 ft 395 kts 322°
2026-05-05 13:31 43.26511 -93.13616 28673 ft 395 kts 322°
2026-05-05 13:31 43.28969 -93.15267 28393 ft 393 kts 322°
2026-05-05 13:32 43.31420 -93.16907 28122 ft 391 kts 322°
2026-05-05 13:32 43.33864 -93.18538 27853 ft 389 kts 322°
2026-05-05 13:32 43.36292 -93.20162 27585 ft 387 kts 322°
2026-05-05 13:32 43.38701 -93.21779 27381 ft 384 kts 322°
2026-05-05 13:33 43.41061 -93.23363 27121 ft 380 kts 322°
2026-05-05 13:33 43.43423 -93.24952 26862 ft 377 kts 321°
2026-05-05 13:33 43.45765 -93.26534 26595 ft 374 kts 321°
2026-05-05 13:33 43.48164 -93.27949 26092 ft 380 kts 329°
2026-05-05 13:34 43.50785 -93.28771 25519 ft 395 kts 340°
2026-05-05 13:34 43.53584 -93.28877 24923 ft 411 kts 350°
2026-05-05 13:34 43.56435 -93.28590 24322 ft 410 kts 351°
2026-05-05 13:34 43.59277 -93.28301 23779 ft 408 kts 351°
2026-05-05 13:35 43.62106 -93.28020 23099 ft 407 kts 351°
2026-05-05 13:35 43.64912 -93.27743 22555 ft 401 kts 351°
2026-05-05 13:35 43.67676 -93.27471 22043 ft 395 kts 351°
2026-05-05 13:35 43.70394 -93.27206 21554 ft 389 kts 350°
2026-05-05 13:36 43.73073 -93.26944 21078 ft 383 kts 350°
2026-05-05 13:36 43.75709 -93.26689 20616 ft 377 kts 350°
2026-05-05 13:36 43.78308 -93.26438 20144 ft 372 kts 350°
2026-05-05 13:36 43.80880 -93.26190 19671 ft 369 kts 350°
2026-05-05 13:37 43.83431 -93.25943 19202 ft 365 kts 350°
2026-05-05 13:37 43.85957 -93.25701 18727 ft 362 kts 350°
2026-05-05 13:37 43.88464 -93.25464 18246 ft 360 kts 350°
2026-05-05 13:37 43.90954 -93.25228 17716 ft 357 kts 351°
2026-05-05 13:38 43.93422 -93.24987 17249 ft 353 kts 351°
2026-05-05 13:38 43.95859 -93.24746 16792 ft 350 kts 352°
2026-05-05 13:38 43.98273 -93.24505 16339 ft 346 kts 353°
2026-05-05 13:38 44.00671 -93.24256 15890 ft 344 kts 354°
2026-05-05 13:39 44.03047 -93.24006 15432 ft 341 kts 354°
2026-05-05 13:39 44.05403 -93.23754 14992 ft 338 kts 355°
2026-05-05 13:39 44.07744 -93.23500 14549 ft 336 kts 356°
2026-05-05 13:39 44.10065 -93.23246 14105 ft 334 kts 356°
2026-05-05 13:40 44.12373 -93.22994 13648 ft 332 kts 357°
2026-05-05 13:40 44.14668 -93.22745 13170 ft 329 kts 357°
2026-05-05 13:40 44.16941 -93.22501 12729 ft 326 kts 357°
2026-05-05 13:40 44.19188 -93.22263 12288 ft 322 kts 357°
2026-05-05 13:41 44.21419 -93.22048 11824 ft 320 kts 357°
2026-05-05 13:41 44.23621 -93.21845 11381 ft 317 kts 357°
2026-05-05 13:41 44.25801 -93.21648 11007 ft 312 kts 357°
2026-05-05 13:41 44.27959 -93.21457 10591 ft 309 kts 357°
2026-05-05 13:42 44.30064 -93.21273 10494 ft 296 kts 357°
2026-05-05 13:42 44.32081 -93.21109 10350 ft 285 kts 356°
2026-05-05 13:42 44.34020 -93.20955 10198 ft 275 kts 356°
2026-05-05 13:42 44.35912 -93.20810 9941 ft 269 kts 356°
2026-05-05 13:43 44.37770 -93.20595 9829 ft 270 kts
2026-05-05 13:43 44.39621 -93.20035 9662 ft 273 kts
2026-05-05 13:43 44.41464 -93.19448 9314 ft 271 kts
2026-05-05 13:43 44.43262 -93.18606 8939 ft 276 kts 20°
2026-05-05 13:44 44.44885 -93.17147 8771 ft 280 kts 29°
2026-05-05 13:44 44.46463 -93.15564 8565 ft 279 kts 29°
2026-05-05 13:44 44.48039 -93.13995 8380 ft 277 kts 29°
2026-05-05 13:44 44.49607 -93.12433 8181 ft 276 kts 29°
2026-05-05 13:45 44.51166 -93.10879 7992 ft 275 kts 29°
2026-05-05 13:45 44.52721 -93.09329 7791 ft 274 kts 30°
2026-05-05 13:45 44.53745 -93.08307 7662 ft 273 kts 30°
2026-05-05 13:45 44.55293 -93.06765 7463 ft 272 kts 30°
2026-05-05 13:46 44.56828 -93.05234 7283 ft 268 kts 30°
2026-05-05 13:46 44.58312 -93.03745 7147 ft 256 kts 30°
2026-05-05 13:46 44.59738 -93.02309 7032 ft 250 kts 30°
2026-05-05 13:46 44.61133 -93.00906 7013 ft 241 kts 30°
2026-05-05 13:47 44.62471 -92.99550 7020 ft 237 kts 29°
2026-05-05 13:47 44.63781 -92.98183 6889 ft 232 kts 31°
2026-05-05 13:47 44.65035 -92.96795 6707 ft 228 kts 32°
2026-05-05 13:47 44.66265 -92.95410 6521 ft 226 kts 32°
2026-05-05 13:48 44.67487 -92.94031 6335 ft 225 kts 32°
2026-05-05 13:48 44.68761 -92.92822 6149 ft 216 kts 15°
2026-05-05 13:48 44.70193 -92.92441 5978 ft 207 kts 352°
2026-05-05 13:48 44.71561 -92.92909 5687 ft 201 kts 330°
2026-05-05 13:49 44.72703 -92.94009 5435 ft 199 kts 322°
2026-05-05 13:49 44.73808 -92.95184 5169 ft 198 kts 322°
2026-05-05 13:49 44.74906 -92.96347 4904 ft 197 kts 322°
2026-05-05 13:49 44.76002 -92.97505 4650 ft 197 kts 323°
2026-05-05 13:50 44.77091 -92.98654 4423 ft 196 kts 323°
2026-05-05 13:50 44.78181 -92.99803 4135 ft 195 kts 323°
2026-05-05 13:50 44.79116 -93.01170 3985 ft 193 kts 305°
2026-05-05 13:50 44.79807 -93.02753 3774 ft 186 kts 304°
2026-05-05 13:51 44.80461 -93.04268 3542 ft 175 kts 304°
2026-05-05 13:51 44.81080 -93.05694 3292 ft 165 kts 304°
2026-05-05 13:51 44.81648 -93.06999 3062 ft 149 kts 305°
2026-05-05 13:51 44.82180 -93.08220 2867 ft 142 kts 305°
2026-05-05 13:52 44.82684 -93.09378 2666 ft 136 kts 304°
2026-05-05 13:52 44.83175 -93.10504 2484 ft 135 kts 304°
2026-05-05 13:52 44.83662 -93.11622 2294 ft 133 kts 304°
2026-05-05 13:52 44.84146 -93.12736 2111 ft 133 kts 304°
2026-05-05 13:53 44.84627 -93.13842 1920 ft 132 kts 304°
2026-05-05 13:53 44.85106 -93.14950 1729 ft 132 kts 304°
2026-05-05 13:53 44.85590 -93.16059 1508 ft 133 kts 304°
2026-05-05 13:53 44.86072 -93.17164 1354 ft 131 kts 305°
2026-05-05 13:54 44.86546 -93.18267 1167 ft 131 kts 305°
2026-05-05 13:54 44.87026 -93.19375 1000 ft 132 kts 306°
2026-05-05 13:54 44.87507 -93.20479 833 ft 130 kts 305°
2026-05-05 13:54 44.87921 -93.21431 824 ft 91 kts 300°
2026-05-05 13:55 44.88148 -93.21956 824 ft 26 kts 302°
2026-05-05 13:55 44.88230 -93.22005 825 ft 12 kts 15°
2026-05-05 13:55 44.88302 -93.21939 824 ft 12 kts 35°
2026-05-05 13:55 44.88365 -93.21867 826 ft 12 kts 44°
2026-05-05 13:56 44.88422 -93.21787 825 ft 11 kts 45°
2026-05-05 13:56 44.88477 -93.21709 826 ft 11 kts 45°
2026-05-05 13:56 44.88531 -93.21633 824 ft 11 kts 45°
2026-05-05 13:56 44.88584 -93.21559 826 ft 11 kts 45°
2026-05-05 13:57 44.88636 -93.21486 826 ft 11 kts 45°
2026-05-05 13:57 44.88688 -93.21414 823 ft 10 kts 45°
2026-05-05 13:57 44.88733 -93.21339 825 ft 10 kts 63°
2026-05-05 13:57 44.88724 -93.21253 825 ft 9 kts 121°
2026-05-05 13:58 44.88681 -93.21205 825 ft 8 kts 153°
2026-05-05 13:58 44.88638 -93.21169 825 ft 7 kts 145°
2026-05-05 13:58 44.88601 -93.21130 825 ft 6 kts 143°
2026-05-05 13:58 44.88580 -93.21108 825 ft 0 kts 143°